This demonstration page uses our WeatherBlox Daily Observations layout. Learn more.

Left ArrowRight Arrow

Hourly Observations for June 2, 2015

Temp ( °F °C ) Dew Point ( °F °C ) Humidity (%) Winds ( mph kmh ) Pressure ( in mb ) Visibility ( mi km ) Precip ( " mm )
12:51 am 00:51 Clear 79 26.1 22 -5.6 12 12 N 9 15 29.78 1009 10 16 0.00 0.00
1:51 am 01:51 Clear 78 25.6 24 -4.4 13 13 NNW 8 13 29.78 1009 10 16 0.00 0.00
2:51 am 02:51 Clear 70 21.1 21 -6.1 16 16 SSW 3 6 29.80 1009 10 16 0.00 0.00
3:51 am 03:51 Clear 64 17.8 20 -6.7 18 18 E 5 7 29.83 1010 10 16 0.00 0.00
4:51 am 04:51 Clear 63 17.2 20 -6.7 19 19 SE 5 7 29.84 1010 10 16 0.00 0.00
5:51 am 05:51 Sunny 61 16.1 21 -6.1 21 21 SE 5 7 29.87 1012 10 16 0.00 0.00
6:51 am 06:51 Sunny 70 21.1 23 -5 17 17 SE 5 7 29.87 1012 10 16 0.00 0.00
7:51 am 07:51 Sunny 77 25 25 -3.9 14 14 SE 5 7 29.87 1012 10 16 0.00 0.00
8:51 am 08:51 Sunny 84 28.9 26 -3.3 12 12 VRB 3 6 29.86 1011 10 16 0.00 0.00
9:51 am 09:51 Sunny 89 31.7 29 -1.7 11 11 undefined N/A 29.85 1011 10 16 0.00 0.00
10:51 am 10:51 Sunny 90 32.2 25 -3.9 9 9 VRB 3 6 29.84 1011 10 16 0.00 0.00
11:51 am 11:51 Sunny 94 34.4 24 -4.4 8 8 VRB 3 6 29.80 1009 10 16 0.00 0.00
12:51 pm 12:51 Mostly Sunny 95 35 21 -6.1 7 7 Calm 29.76 1008 10 16 0.00 0.00
1:51 pm 13:51 Mostly Cloudy 98 36.7 22 -5.6 6 6 NNW 7 11 29.73 1007 10 16 0.00 0.00
2:51 pm 14:51 Mostly Cloudy 99 37.2 22 -5.6 6 6 WNW 10 17 29.71 1006 10 16 0.00 0.00
3:51 pm 15:51 Mostly Cloudy 100 37.8 21 -6.1 6 6 Calm 29.69 1006 10 16 0.00 0.00
4:51 pm 16:51 Mostly Cloudy 100 37.8 22 -5.6 6 6 W 17 28 29.67 1005 10 16 0.00 0.00
5:51 pm 17:51 Mostly Cloudy 98 36.7 23 -5 7 7 NW 18 30 29.67 1005 10 16 0.00 0.00
6:51 pm 18:51 Mostly Cloudy 95 35 25 -3.9 8 8 WNW 18 30 29.67 1005 10 16 0.00 0.00
7:51 pm 19:51 Mostly Cloudy 90 32.2 28 -2.2 11 11 NW 14 22 29.68 1005 10 16 0.00 0.00
8:51 pm 20:51 Mostly Clear 87 30.6 29 -1.7 12 12 NNW 14 22 29.70 1006 10 16 0.00 0.00
9:51 pm 21:51 Mostly Clear 82 27.8 30 -1.1 15 15 WNW 12 19 29.72 1007 10 16 0.00 0.00
10:51 pm 22:51 Clear 77 25 29 -1.7 17 17 WNW 10 17 29.74 1007 10 16 0.00 0.00
11:51 pm 23:51 Clear 81 27.2 29 -1.7 15 15 NNW 12 19 29.73 1007 10 16 0.00 0.00

Powered by AerisWeather